This demonstration page uses our WeatherBlox Daily Observations layout. Learn more.

39.01783, -85.05884

Hourly Observations for August 22, 2020

Temp ( °F °C ) Dew Point ( °F °C ) Humidity (%) Winds ( mph kmh ) Pressure ( in mb ) Visibility ( mi km ) Precip ( " mm )
12:52 am 00:52 Cloudy 69 20.6 66 18.9 90 90 SSE 5 7 29.91 1013 10 16.0934 0 0
1:52 am 01:52 Cloudy 72 22.2 66 18.9 82 82 Calm 29.9 1013 10 16.0934 0 0
2:52 am 02:52 Cloudy 72 22.2 67 19.4 84 84 WNW 5 7 29.9 1013 10 16.0934 0 0
3:52 am 03:52 Cloudy 71 21.7 66 18.9 84 84 Calm 29.91 1013 10 16.0934 0 0
4:52 am 04:52 Cloudy 72 22.2 66 18.9 82 82 Calm 29.9 1013 10 16.0934 0 0
5:52 am 05:52 Cloudy 71 21.7 66 18.9 84 84 Calm 29.91 1013 10 16.0934 0 0
6:52 am 06:52 Mostly Cloudy 71 21.7 66 18.9 84 84 Calm 29.92 1013 9 14.48406 0 0
7:52 am 07:52 Mostly Cloudy 73 22.8 66 18.9 79 79 VRB 5 7 29.94 1014 9 14.48406 0 0
8:52 am 08:52 Mostly Cloudy 74 23.3 67 19.4 79 79 Calm 29.96 1014 10 16.0934 0 0
9:52 am 09:52 Mostly Cloudy 76 24.4 66 18.9 72 72 NE 3 6 29.96 1014 10 16.0934 0 0
10:52 am 10:52 Mostly Cloudy 77 25 67 19.4 71 71 ENE 6 9 29.96 1015 10 16.0934 0 0
11:52 am 11:52 Mostly Cloudy 77 25 67 19.4 71 71 NNW 8 13 29.96 1015 10 16.0934 0 0
12:52 pm 12:52 Mostly Cloudy with Nearby Thunderstorms 75 23.9 70 21.1 84 84 WSW 3 6 29.95 1014 10 16.0934 0.02 0.508
1:08 pm 13:08 Mostly Cloudy with Thunderstorms 75 23.9 70 21.1 84 84 SW 5 7 29.95 1014 9 14.48406 0 0
1:23 pm 13:23 Mostly Cloudy with Nearby Thunderstorms 76 24.4 70 21.1 82 82 SW 6 9 29.93 1014 10 16.0934 0.001 0.001
1:48 pm 13:48 Mostly Cloudy 75 24 70 21 83 83 SSW 7 11 29.94 1014 9 14.48406 0.001 0.001
1:52 pm 13:52 Mostly Cloudy 75 23.9 69 20.6 82 82 SSW 7 11 29.94 1014 9 14.48406 0.001 0.001
2:08 pm 14:08 Mostly Cloudy with Light Thunderstorms 73 22.8 69 20.6 87 87 S 6 9 29.95 1014 9 14.48406 0.001 0.001
2:30 pm 14:30 Mostly Cloudy with Nearby Thunderstorms 74 23.3 68 20 82 82 S 9 15 29.95 1014 10 16.0934 0.001 0.001
2:41 pm 14:41 Cloudy 74 23.3 68 20 82 82 SSE 8 13 29.95 1014 10 16.0934 0.001 0.001
2:52 pm 14:52 Cloudy with Rain 73 22.8 69 20.6 87 87 S 8 13 29.96 1015 10 16.0934 0.001 0.001
3:52 pm 15:52 Cloudy with Light Rain 72 22.2 68 20 87 87 S 7 11 29.94 1014 10 16.0934 0.03 0.762
4:52 pm 16:52 Mostly Cloudy 74 23.3 67 19.4 79 79 SE 6 9 29.93 1014 10 16.0934 0.001 0.001
5:52 pm 17:52 Mostly Cloudy 74 23.3 68 20 82 82 SSE 7 11 29.95 1014 10 16.0934 0 0
6:52 pm 18:52 Mostly Cloudy 76 24.4 68 20 77 77 ESE 7 11 29.93 1014 10 16.0934 0 0
7:52 pm 19:52 Mostly Cloudy 76 24.4 67 19.4 74 74 Calm 29.94 1014 10 16.0934 0 0
8:52 pm 20:52 Mostly Cloudy 72 22.2 67 19.4 84 84 SSE 3 6 29.95 1014 10 16.0934 0 0
9:52 pm 21:52 Mostly Cloudy 71 21.7 66 18.9 84 84 Calm 29.97 1015 10 16.0934 0.001 0.001
10:52 pm 22:52 Mostly Cloudy 71 21.7 66 18.9 84 84 Calm 29.98 1015 10 16.0934 0 0
11:52 pm 23:52 Mostly Cloudy 70 21.1 66 18.9 87 87 Calm 29.97 1015 10 16.0934 0 0

Powered by AerisWeather